Regional Weather Roundup
Issued by NWS

Home | Current Version | Previous Version | Graphics & Text | Print | Product List | Glossary On
Versions: 1 2 3 4 5 6 7 8 9 10 11 12 13 14 15 16 17 18 19 20 21 22 23 24 25 26 27 28 29 30 31 32 33 34 35 36 37 38 39 40 41 42 43 44 45 46 47 48 49 50
000
ASUS43 KOAX 020510
RWRNE

WEATHER ROUNDUP FOR NEBRASKA
NATIONAL WEATHER SERVICE OMAHA NE
1200 AM CDT WED SEP 02 2015

NOTES: SATELLITE DATA IS BEING USED TO AUGMENT CLOUD COVER ABOVE
       12000 FEET.
       "FAIR" INDICATES FEW OR NO CLOUDS BELOW 12,000 FEET WITH NO
       SIGNIFICANT WEATHER AND/OR OBSTRUCTIONS TO VISIBILITY.

  * THESE STATIONS DO NOT REPORT WEATHER SUCH AS RAIN...SNOW OR FOG.

NEZ001>004-019>022-054>056-020600-
NEBRASKA PANHANDLE

CITY           SKY/WX    TMP DP  RH WIND       PRES   REMARKS
SCOTTSBLUFF    PTCLDY    64  50  60 E7        29.94S
ALLIANCE       PTCLDY    70  48  45 S10       29.94S
CHADRON        CLEAR     61  45  55 CALM      29.89R
KIMBALL        PTCLDY    70  41  34 W10       30.02F
SIDNEY         CLEAR     69  46  43 S9        30.00F
$$

NEZ057>060-069>072-079>082-020600-
SOUTHWEST NEBRASKA

CITY           SKY/WX    TMP DP  RH WIND       PRES   REMARKS
NORTH PLATTE   CLEAR     65  62  90 E3        29.91F
IMPERIAL       CLEAR     73  55  53 S8        29.95S
LEXINGTON      CLEAR     69  65  86 CALM      29.91S
MCCOOK         CLEAR     75  58  55 CALM      29.91F
OGALLALA       CLEAR     72  54  53 S7        29.94S
$$

NEZ005>010-023>029-035>040-094-020600-
NORTH CENTRAL NEBRASKA

CITY           SKY/WX    TMP DP  RH WIND       PRES   REMARKS
VALENTINE      CLEAR     75  61  61 SW9       29.86F
AINSWORTH      CLEAR     73  64  73 S9        29.88F
BROKEN BOW     CLEAR     68  63  84 CALM      29.91S
O`NEILL        CLEAR     73  66  79 SE6       29.88F
ORD            CLEAR     67  63  87 CALM      29.88S
THEDFORD       CLEAR     73  64  72 S12       29.92S
$$

NEZ041-046>049-061>064-073>077-083>087-020600-
SOUTH CENTRAL NEBRASKA

CITY           SKY/WX    TMP DP  RH WIND       PRES   REMARKS
GRAND ISLAND   PTCLDY    77  64  64 S12       29.91S
AURORA         CLEAR     75  65  73 S8        29.91S
HASTINGS       CLEAR     76  63  64 MISG      29.91S
HEBRON         CLEAR     78  62  58 S12G18    29.92S
HOLDREGE       CLEAR     71  61  71 SE13      29.91S
KEARNEY *      CLEAR     72  63  73 SE10      29.90F
YORK           CLEAR     73  66  78 S8        29.91S
$$

NEZ011>018-030>034-042>045-020600-
NORTHEAST NEBRASKA

CITY           SKY/WX    TMP DP  RH WIND       PRES   REMARKS
NORFOLK        CLEAR     76  66  71 S12       29.88F
ALBION         CLEAR     72  65  79 SE5       29.89F
BLAIR          PTCLDY    77  65  66 S15G22    29.92F
COLUMBUS *     CLEAR     75  63  64 S7        29.90S
FREMONT        CLEAR     76  65  68 SE13      29.91S
TEKAMAH        CLEAR     73  69  87 SE7       29.90S
WAYNE          CLEAR     71  68  91 S5        29.89F
$$

NEZ050>053-065>068-078-088>093-020600-
SOUTHEAST NEBRASKA

CITY           SKY/WX    TMP DP  RH WIND       PRES   REMARKS
LINCOLN        CLEAR     78  65  63 S13G22    29.91S
OMAHA EPPLEY   MOCLDY    80  67  64 S21       29.92S
BEATRICE       PTCLDY    78  67  68 S13G18    29.93S
FALLS CITY     LGT RAIN  75  68  78 S14       29.96F
NEBRASKA CITY  CLOUDY    76  62  60 S13       29.95F
PLATTSMOUTH    MOCLDY    77  65  66 SE14      29.94S
$$

NEZ044-045-051>053-067-020600-
OMAHA AREA

CITY           SKY/WX    TMP DP  RH WIND       PRES   REMARKS
OMAHA EPPLEY   MOCLDY    80  67  64 S21       29.92S
BLAIR          PTCLDY    77  65  66 S15G22    29.92F
FREMONT        CLEAR     76  65  68 SE13      29.91S
MILLARD        PTCLDY    77  68  73 SE7       29.92S
OFFUTT AFB     PTCLDY    77  68  73 SE14      29.92F
PLATTSMOUTH    MOCLDY    77  65  66 SE14      29.94S
WAHOO          FAIR      72  67  83 SE8       29.91S
$$




USA.gov is the U.S. government's official web portal to all federal, state and local government web resources and services.